Location: Unspecified
(0.0000°N, 0.0000°E)
Time: 00:01:26
(UTC+00:00)

N. Korean satellite - Visible Passes

Search period start: 20 February 2018 00:00
Search period end: 02 March 2018 00:00
Orbit: 459 x 514 km, 97.2° (Epoch: 19 February)

Date Brightness Start Highest point End Pass type
(mag) Time Alt. Az. Time Alt. Az. Time Alt. Az.
21 Feb 10.2 05:33:18 10° ENE 05:35:33 15° ESE 05:37:49 10° SE visible
21 Feb 9.6 18:54:27 10° SSW 18:57:03 20° WSW 18:59:39 10° NW visible
25 Feb 10.2 05:31:55 10° ENE 05:34:05 15° ESE 05:36:15 10° SE visible
25 Feb 9.5 18:52:51 10° SSW 18:55:31 21° WSW 18:58:11 10° NW visible
01 Mar 10.2 05:30:31 10° ENE 05:32:33 14° E 05:34:36 10° SE visible
01 Mar 9.4 18:51:13 10° SSW 18:53:56 22° W 18:56:40 10° NW visible
